Location: Aula-Vintri
(58.3875°N, 22.4322°E)
Time: 05:01:54
(UTC+00:00)

ATLAS 5 CENTAUR R/B - Pass Details

Date: 13 October 2019
Orbit: 557 x 1102 km, 63.4° (Epoch: 11 November)

Event Time Altitude Azimuth Distance (km) Brightness Sun altitude
Rises 19:19:37 0° 256° (WSW) 2,898 5.5 -29.3°
Reaches altitude 10° 19:21:47 10° 260° (W) 2,051 4.7 -29.5°
Enters shadow 19:25:27 50° 294° (WNW) 887 2.5 -29.9°
